{"data":{"norad_id":66942,"intl_designator":"2025-286T","name":"STARLINK-36100","alt_names":[],"object_type":"PAYLOAD","status":"ACTIVE","operator":null,"country":"US","launch_date":"2025-12-07","launch_site_code":"AFWTR","launch_vehicle":null,"mission":null,"orbit_class":"UNKNOWN","rcs_meters":null,"size_class":null,"mass_kg":null,"dimensions":null,"purposes":["comms"],"wikipedia_slug":null,"has_3d_model":false,"image_url":null,"decayed_at":null,"tle_current":{"epoch":"2026-09-20T03:50:39.018912Z","epoch_age_seconds":111067,"freshness":"FRESH","line1":"1 66942U 25286T   26263.16017383  .00014397  00000+0  43629-3 0  9998","line2":"2 66942  53.1595 171.4283 0001169  89.7789 270.3347 15.34409312 45173","mean_motion":15.34409312,"eccentricity":0.0001169,"inclination_deg":53.1595,"raan_deg":171.4283,"arg_perigee_deg":89.7789,"mean_anomaly_deg":270.3347,"bstar":0.00043629,"rev_number":4517,"period_min":93.847188539481,"perigee_km":461.87587213203,"apogee_km":463.47525410929,"semimajor_km":6840.8125631207,"source":"CELESTRAK","updated_at":"2026-09-21T09:00:36.059311Z"}}}